Left ArrowRight Arrow

32.19382, -80.73816

Hourly Observations for June 22, 2024

Temp ( °F °C ) Dew Point ( °F °C ) Humidity (%) Winds ( mph kmh ) Pressure ( in mb ) Visibility ( mi km ) Precip ( " mm )
12:15 am 00:15 Mostly Cloudy 79 26 77 25 94 94 VRB 6 9 30.13 1020 10 16 0.00 0.00
12:35 am 00:35 Mostly Clear 79 26 77 25 94 94 VRB 7 11 30.13 1020 7 11 0.00 0.00
12:55 am 00:55 Mostly Clear 79 26 75 24 89 89 VRB 5 7 30.13 1020 10 16 0.00 0.00
1:15 am 01:15 Mostly Clear 79 26 75 24 89 89 VRB 3 6 30.12 1020 10 16 0.00 0.00
1:35 am 01:35 Mostly Clear 81 27 77 25 89 89 VRB 6 9 30.12 1020 10 16 0.00 0.00
1:55 am 01:55 Partly Cloudy 81 27 77 25 89 89 VRB 6 9 30.12 1020 10 16 0.00 0.00
2:15 am 02:15 Mostly Cloudy 81 27 77 25 89 89 VRB 5 7 30.11 1020 10 16 0.00 0.00
2:35 am 02:35 Cloudy 81 27 77 25 89 89 VRB 5 7 30.10 1019 10 16 0.00 0.00
2:55 am 02:55 Cloudy 81 27 77 25 89 89 ESE 9 15 30.09 1019 10 16 0.00 0.00
3:15 am 03:15 Mostly Cloudy 81 27 77 25 89 89 VRB 7 11 30.08 1019 10 16 0.00 0.00
3:35 am 03:35 Mostly Cloudy 81 27 77 25 89 89 VRB 7 11 30.08 1019 10 16 0.00 0.00
3:55 am 03:55 Cloudy 81 27 77 25 89 89 VRB 7 11 30.08 1019 10 16 0.00 0.00
4:15 am 04:15 Mostly Cloudy 81 27 77 25 89 89 ESE 9 15 30.07 1018 10 16 0.00 0.00
4:35 am 04:35 Mostly Cloudy 81 27 77 25 89 89 VRB 6 9 30.07 1018 10 16 0.00 0.00
4:55 am 04:55 Mostly Cloudy 81 27 77 25 89 89 VRB 7 11 30.07 1018 10 16 0.00 0.00
5:15 am 05:15 Mostly Cloudy 81 27 77 25 89 89 VRB 8 13 30.07 1018 10 16 0.00 0.00
5:35 am 05:35 Mostly Cloudy 79 26 75 24 89 89 S 9 15 30.08 1019 10 16 0.00 0.00
5:55 am 05:55 Mostly Cloudy with Drizzle 77 25 75 24 94 94 VRB 5 7 30.07 1018 7 11 0.00 0.00
6:15 am 06:15 Cloudy 77 25 75 24 94 94 VRB 5 7 30.07 1018 9 14 0.00 0.00
6:55 am 06:55 Mostly Cloudy with Drizzle 77 25 75 24 94 94 VRB 6 9 30.08 1019 3 4 0.00 0.00
7:55 am 07:55 Cloudy 77 25 75 24 94 94 VRB 6 9 30.09 1019 10 16 0.00 0.00
9:55 am 09:55 Mostly Cloudy 81 27 75 24 84 84 VRB 6 9 30.10 1019 10 16 0.00 0.00
10:55 am 10:55 Cloudy 81 27 75 24 84 84 VRB 6 9 30.10 1019 10 16 0.00 0.00
12:55 pm 12:55 Mostly Cloudy 84 29 77 25 79 79 SSE 10 17 30.08 1019 10 16 0.00 0.00
1:55 pm 13:55 Sunny 84 29 77 25 79 79 VRB 7 11 30.06 1018 10 16 0.00 0.00
2:55 pm 14:55 Mostly Sunny 84 29 77 25 79 79 S 10 17 30.05 1018 10 16 0.00 0.00
3:55 pm 15:55 Partly Cloudy 84 29 77 25 79 79 SE 10 17 30.03 1017 10 16 0.00 0.00
4:55 pm 16:55 Mostly Cloudy 82 28 75 24 79 79 SSE 9 15 30.03 1017 10 16 0.00 0.00
5:55 pm 17:55 Mostly Cloudy 82 28 75 24 79 79 undefined N/A 30.02 1017 10 16 0.00 0.00
6:55 pm 18:55 Cloudy 82 28 77 25 84 84 VRB 7 11 30.02 1017 10 16 0.00 0.00
7:55 pm 19:55 Mostly Cloudy 81 27 75 24 84 84 VRB 5 7 30.03 1017 10 16 0.00 0.00
8:55 pm 20:55 Mostly Cloudy 81 27 75 24 84 84 VRB 6 9 30.03 1017 10 16 0.00 0.00
9:15 pm 21:15 Cloudy 81 27 75 24 84 84 VRB 6 9 30.03 1017 10 16 0.00 0.00
9:35 pm 21:35 Mostly Cloudy 81 27 77 25 89 89 VRB 6 9 30.03 1017 10 16 0.00 0.00
9:55 pm 21:55 Cloudy 81 27 77 25 89 89 Calm 30.03 1017 7 11 0.00 0.00
10:15 pm 22:15 Mostly Cloudy 81 27 77 25 89 89 VRB 6 9 30.03 1017 7 11 0.00 0.00
10:35 pm 22:35 Mostly Cloudy with Haze 81 27 77 25 89 89 VRB 6 9 30.04 1017 5 8 0.00 0.00
10:55 pm 22:55 Mostly Cloudy 81 27 77 25 89 89 VRB 7 11 30.04 1017 9 14 0.00 0.00
11:15 pm 23:15 Mostly Cloudy 81 27 77 25 89 89 VRB 7 11 30.04 1017 10 16 0.00 0.00
11:35 pm 23:35 Mostly Cloudy 81 27 77 25 89 89 SSE 9 15 30.04 1017 10 16 0.00 0.00
11:55 pm 23:55 Cloudy 81 27 77 25 89 89 SSE 8 13 30.04 1017 10 16 0.00 0.00

Powered by Vaisala Xweather